EW9598 Weather Reports


Display with metric or nautical units.
time (UTC)temp
F
wind
direction
speed
MPH
gust
MPH
rain 1hr
in
rain 24hr
in
rain mn
in
humidity
%
barometer
mb
20260906031157 81 114 0.0 0.0 0.00 0.00 0.00 83 1011.1
20260906031138 81 94 0.0 0.0 0.00 0.00 0.00 83 1011.1
20260906030144 81 117 0.0 0.0 0.00 0.00 0.00 83 1011.1
20260906025638 82 124 0.0 0.0 0.00 0.00 0.00 83 1011.1
20260906025402 82 123 0.0 0.0 0.00 0.00 0.00 82 1011.1
20260906024625 82 123 0.0 0.0 0.00 0.00 0.00 82 1010.8
20260906024119 82 108 0.0 0.0 0.00 0.00 0.00 82 1010.8
20260906023617 82 121 0.0 0.0 0.00 0.00 0.00 82 1010.8
20260906023328 82 123 0.0 0.0 0.00 0.00 0.00 82 1010.8
20260906022600 82 130 0.0 0.0 0.00 0.00 0.00 82 1010.8
20260906022058 82 128 0.0 0.0 0.00 0.00 0.00 81 1011.1
20260906021547 82 129 0.0 0.0 0.00 0.00 0.00 81 1010.8
20260906021054 83 123 0.0 0.0 0.00 0.00 0.00 80 1010.8
20260906020539 83 105 0.0 0.0 0.00 0.00 0.00 80 1010.4
20260906020029 83 124 0.0 0.0 0.00 0.00 0.00 79 1010.4
20260906015521 83 125 0.0 0.0 0.00 0.00 0.00 78 1010.4
20260906015019 83 108 0.0 0.0 0.00 0.00 0.00 77 1010.0
20260906014521 84 91 0.0 0.0 0.00 0.00 0.00 77 1010.0
20260906014003 84 116 0.0 0.0 0.00 0.00 0.00 77 1010.4
20260906013500 84 113 0.0 0.0 0.00 0.00 0.00 76 1010.0
20260906012949 84 122 0.0 0.0 0.00 0.00 0.00 76 1009.7
20260906012444 84 122 0.0 0.0 0.00 0.00 0.00 75 1010.0
20260906012201 84 123 0.0 0.0 0.00 0.00 0.00 75 1010.0
20260906011431 85 122 0.0 0.0 0.00 0.00 0.00 75 1009.7
20260906010924 85 102 0.0 0.0 0.00 0.00 0.00 74 1009.7
20260906010422 85 114 0.0 0.0 0.00 0.00 0.00 73 1009.7
20260906005911 86 117 0.0 0.0 0.00 0.00 0.00 72 1009.7
20260906005405 86 117 0.0 0.0 0.00 0.00 0.00 71 1009.7
20260906004903 86 113 0.0 0.0 0.00 0.00 0.00 71 1009.4
20260906004352 86 121 0.0 0.0 0.00 0.00 0.00 71 1009.7
20260906003851 87 121 0.0 0.0 0.00 0.00 0.00 69 1009.4
20260906003349 87 89 0.0 0.0 0.00 0.00 0.00 68 1009.4
20260906002833 88 128 0.0 0.0 0.00 0.00 0.00 68 1009.4
20260906002326 88 128 0.0 0.0 0.00 0.00 0.00 67 1009.4
20260906001824 89 125 0.0 0.0 0.00 0.00 0.00 66 1009.7
20260906001314 89 124 0.0 0.0 0.00 0.00 0.00 64 1009.7
20260906000808 90 119 0.0 0.0 0.00 0.00 0.00 63 1009.7
20260906000305 90 143 0.0 0.0 0.00 0.00 0.00 62 1009.7
20260905235754 90 243 0.0 0.0 0.00 0.00 0.00 61 1009.7
20260905235249 90 214 0.0 2.0 0.00 0.00 0.00 61 1009.7
20260905234751 91 133 0.0 2.0 0.00 0.00 0.00 61 1010.0
20260905234236 91 187 0.0 2.0 0.00 0.00 0.00 59 1009.7
20260905233729 91 168 0.0 0.0 0.00 0.00 0.00 59 1010.0
20260905233228 91 145 0.0 0.0 0.00 0.00 0.00 58 1009.7
20260905232946 92 144 0.0 0.0 0.00 0.00 0.00 58 1010.0
20260905232209 92 232 0.0 0.0 0.00 0.00 0.00 56 1009.7
20260905232148 92 135 0.0 2.0 0.00 0.00 0.00 57 1009.7
20260905231423 93 135 0.0 2.0 0.00 0.00 0.00 57 1009.7
20260905230653 93 95 0.0 2.0 0.00 0.00 0.00 55 1009.7
20260905230149 93 350 0.0 2.0 0.00 0.00 0.00 54 1009.7
20260905225639 94 107 0.0 2.0 0.00 0.00 0.00 54 1009.7
20260905225132 95 127 0.0 8.0 0.00 0.00 0.00 53 1009.7
20260905224630 95 97 0.0 8.0 0.00 0.00 0.00 51 1010.0
20260905224342 97 199 0.0 5.0 0.00 0.00 0.00 50 1009.7
20260905223612 98 335 0.0 5.0 0.00 0.00 0.00 49 1009.7
20260905223111 100 19 0.0 5.0 0.00 0.00 0.00 47 1009.7
20260905222600 99 119 0.0 5.0 0.00 0.00 0.00 46 1009.4
20260905222053 100 245 3.0 5.0 0.00 0.00 0.00 46 1009.4
20260905221551 101 138 0.0 2.0 0.00 0.00 0.00 44 1009.4
20260905221040 100 139 0.0 5.0 0.00 0.00 0.00 43 1009.4
20260905220533 100 153 0.0 8.0 0.00 0.00 0.00 44 1009.7
20260905220030 101 242 5.0 8.0 0.00 0.00 0.00 44 1009.7
20260905215518 101 125 0.0 8.0 0.00 0.00 0.00 45 1009.4
20260905215011 101 120 0.0 10.0 0.00 0.00 0.00 45 1009.4
20260905214508 101 129 2.0 10.0 0.00 0.00 0.00 44 1009.4
20260905214220 101 131 3.0 8.0 0.00 0.00 0.00 43 1009.4
20260905213450 103 145 0.0 5.0 0.00 0.00 0.00 42 1009.4
20260905212946 103 179 0.0 5.0 0.00 0.00 0.00 41 1009.4
20260905212434 103 355 2.0 5.0 0.00 0.00 0.00 41 1009.4
20260905211927 103 189 2.0 5.0 0.00 0.00 0.00 40 1009.4
20260905211437 104 129 0.0 5.0 0.00 0.00 0.00 39 1009.4
20260905210912 106 152 0.0 5.0 0.00 0.00 0.00 38 1009.4
20260905210405 105 118 0.0 5.0 0.00 0.00 0.00 39 1009.4
20260905205902 105 134 2.0 8.0 0.00 0.00 0.00 39 1009.4
20260905205613 105 131 4.0 8.0 0.00 0.00 0.00 39 1009.7
20260905205109 105 121 2.0 8.0 0.00 0.00 0.00 39 1009.4
20260905204536 105 128 1.0 5.0 0.00 0.00 0.00 39 1009.7
20260905204432 105 148 1.0 8.0 0.00 0.00 0.00 39 1009.4
20260905203321 105 155 0.0 5.0 0.00 0.00 0.00 39 1009.7
20260905202817 104 131 2.0 5.0 0.00 0.00 0.00 40 1009.7
20260905202527 105 136 2.0 5.0 0.00 0.00 0.00 40 1010.0
20260905202247 105 165 0.0 2.0 0.00 0.00 0.00 40 1009.7
20260905201254 105 127 0.0 5.0 0.00 0.00 0.00 41 1009.7
20260905200743 103 227 1.0 5.0 0.00 0.00 0.00 42 1009.7
20260905200234 103 269 4.0 5.0 0.00 0.00 0.00 42 1010.0
20260905195954 101 203 2.0 5.0 0.00 0.00 0.00 43 1010.0
20260905195446 101 227 1.0 2.0 0.00 0.00 0.00 43 1010.4
20260905194713 101 140 0.0 2.0 0.00 0.00 0.00 44 1010.4
20260905194440 101 133 0.0 2.0 0.00 0.00 0.00 44 1010.4
20260905193658 103 180 0.0 5.0 0.00 0.00 0.00 42 1010.4
20260905193151 102 132 0.0 5.0 0.00 0.00 0.00 44 1010.4
20260905192648 103 134 0.0 8.0 0.00 0.00 0.00 42 1010.4
20260905192136 103 130 0.0 8.0 0.00 0.00 0.00 43 1010.4
20260905192123 102 357 0.0 5.0 0.00 0.00 0.00 43 1010.4
20260905191126 101 111 0.0 5.0 0.00 0.00 0.00 43 1010.8
20260905190847 101 122 0.0 8.0 0.00 0.00 0.00 44 1011.1
20260905190115 101 180 1.0 8.0 0.00 0.00 0.00 43 1011.1
20260905185604 103 128 1.0 8.0 0.00 0.00 0.00 42 1010.8
20260905185314 102 126 4.0 8.0 0.00 0.00 0.00 42 1010.8
20260905184545 105 120 0.0 8.0 0.00 0.00 0.00 40 1010.8
20260905184041 105 130 0.0 5.0 0.00 0.00 0.00 41 1010.8
20260905183530 104 173 0.0 5.0 0.00 0.00 0.00 42 1011.1
20260905183021 103 119 1.0 5.0 0.00 0.00 0.00 43 1011.1
20260905182517 104 138 0.0 0.0 0.00 0.00 0.00 43 1011.1
20260905182224 103 123 0.0 0.0 0.00 0.00 0.00 45 1011.5